Flagstaff, AZ

5:46 PM MST on September 28, 2016 (GMT -0700)
Flagstaff Pulliam

Weather History for KFLG - December, 2014

Change the Weather History Date:

Saturday, December 13, 2014

  Actual Average Record
Temperature  
Mean Temperature 36 °F 30 °F  
Max Temperature 41 °F 42 °F 67 °F (2010)
Min Temperature 30 °F 17 °F -19 °F (1931)
Degree Days  
Heating Degree Days 29 36  
Month to date heating degree days 338 449  
Since 1 July heating degree days 1755 2181  
Cooling Degree Days 0 0  
Month to date cooling degree days 0 0  
Year to date cooling degree days 109 117  
Moisture  
Dew Point 29 °F    
Average Humidity 78    
Maximum Humidity 92    
Minimum Humidity 64    
Precipitation  
Precipitation 0.58 in 0.06 in 1.52 in (1967)
Month to date precipitation 2.42 0.74  
Year to date precipitation 19.65 20.73  
Snow  
Snow 1.10 in 0.50 in 26.80 in (1967)
Month to date snowfall 1.1 6.7  
Since 1 July snowfall 1.1 18.9  
Snow Depth 0.00 in    
Sea Level Pressure  
Sea Level Pressure 29.94 in    
Wind  
Wind Speed 11 mph (WSW)    
Max Wind Speed 35 mph    
Max Gust Speed 45 mph    
Visibility 6 miles    
Events Fog , Rain , Snow    
T = Trace of Precipitation, MM = Missing Value Source: NWS Daily Summary

Daily Weather History Graph

Daily Weather History Graph

Search for Another Location

Airport or City:

Trip Planner

Search our weather history database for the weather conditions in past years. The results will help you decide how hot, cold, wet, or windy it might be!

Date:

Astronomy

Dec. 13, 2014 Rise Set
Actual Time 7:26 AM MST 5:15 PM MST
Civil Twilight 6:58 AM MST 5:43 PM MST
Nautical Twilight 6:26 AM MST 6:15 PM MST
Astronomical Twilight 5:55 AM MST 6:46 PM MST
Moon No Moon Rise 12:03 PM MST (12/13)
Length of Visible Light 10h 45m
Length of Day
9h 49m
Waning Gibbous, 57% of the Moon is Illuminated
Dec 13
Waning Gibbous
Dec 14
Last Quarter
Dec 21
New
Dec 28
First Quarter
Jan 4
Full

Hourly Weather History & Observations

Time (MST) Temp. Windchill Dew Point Humidity Pressure Visibility Wind Dir Wind Speed Gust Speed Precip Events Conditions
12:37 AM 39.9 °F 30.2 °F 37.0 °F 89% 30.04 in 3.0 mi SSW 20.7 mph 31.1 mph 0.11 in Rain Heavy Rain
12:57 AM 41.0 °F 29.7 °F 37.9 °F 89% 29.87 in 7.0 mi SW 31.1 mph 39.1 mph 0.14 in Rain Light Rain
1:57 AM 39.9 °F 28.2 °F 37.0 °F 89% 29.87 in 10.0 mi SW 31.1 mph 41.4 mph 0.02 in Rain Light Rain
2:57 AM 39.9 °F 30.0 °F 37.0 °F 89% 29.86 in 10.0 mi SSW 21.9 mph 29.9 mph 0.03 in Rain Light Rain
3:57 AM 39.9 °F 31.4 °F 37.0 °F 89% 29.84 in 4.0 mi SSW 16.1 mph 24.2 mph 0.06 in Rain Rain
4:57 AM 37.0 °F 29.8 °F 34.0 °F 89% 29.87 in 4.0 mi West 10.4 mph - 0.18 in Rain Rain
5:28 AM 34.0 °F 28.0 °F 30.9 °F 89% 29.98 in 5.0 mi West 6.9 mph - 0.03 in Snow Light Snow
5:57 AM 33.1 °F 25.5 °F 30.9 °F 92% 29.88 in 2.0 mi West 9.2 mph - 0.04 in Snow Light Snow
6:04 AM 33.1 °F 25.5 °F 30.9 °F 92% 29.99 in 1.5 mi West 9.2 mph - 0.00 in Snow Light Snow
6:38 AM 32.0 °F 24.2 °F 28.9 °F 88% 29.99 in 1.5 mi WSW 9.2 mph 18.4 mph 0.02 in Snow Light Snow
6:47 AM 32.0 °F 26.4 °F 30.0 °F 92% 30.00 in 3.0 mi WSW 5.8 mph - 0.03 in Snow Light Snow
6:57 AM 32.0 °F 28.7 °F 30.0 °F 92% 29.90 in 9.0 mi WSW 3.5 mph - 0.03 in   Overcast
7:51 AM 32.0 °F 22.5 °F 28.4 °F 87% 30.01 in 2.5 mi WSW 12.7 mph 18.4 mph 0.00 in Snow Light Snow
7:57 AM 32.0 °F 24.8 °F 28.9 °F 88% 29.91 in 1.5 mi West 8.1 mph 18.4 mph 0.00 in Snow Light Snow
8:05 AM 32.0 °F 27.5 °F 28.0 °F 85% 30.00 in 4.0 mi West 4.6 mph - 0.00 in Snow Light Snow
8:57 AM 32.0 °F 24.8 °F 28.0 °F 85% 29.92 in 10.0 mi WSW 8.1 mph - 0.00 in   Partly Cloudy
9:57 AM 34.0 °F 24.6 °F 28.9 °F 82% 29.92 in 10.0 mi SW 13.8 mph - N/A   Partly Cloudy
10:57 AM 36.0 °F 27.1 °F 28.0 °F 73% 29.90 in 10.0 mi WSW 13.8 mph 20.7 mph N/A   Partly Cloudy
11:57 AM 37.0 °F 28.9 °F 28.9 °F 73% 29.87 in 10.0 mi WSW 12.7 mph - N/A   Mostly Cloudy
12:07 PM 37.0 °F 28.1 °F 28.9 °F 73% 29.97 in 10.0 mi West 15.0 mph - N/A   Scattered Clouds
12:57 PM 37.0 °F 29.8 °F 27.0 °F 67% 29.85 in 9.0 mi WSW 10.4 mph 21.9 mph 0.00 in   Mostly Cloudy
1:35 PM 33.1 °F 24.9 °F 27.0 °F 78% 29.96 in 0.5 mi West 10.4 mph 23.0 mph 0.00 in Snow Snow
1:41 PM 30.9 °F 24.3 °F 28.0 °F 89% 29.96 in 0.2 mi Variable 6.9 mph 19.6 mph 0.02 in Fog , Snow Snow
1:57 PM 30.0 °F 26.5 °F 28.0 °F 92% 29.88 in 0.2 mi Variable 3.5 mph - 0.04 in Fog , Snow Snow
2:00 PM 30.0 °F 24.1 °F 28.0 °F 92% 29.95 in 0.5 mi West 5.8 mph - 0.00 in Fog , Snow Snow
2:10 PM 30.9 °F 25.2 °F 27.0 °F 85% 29.95 in 1.0 mi WSW 5.8 mph - 0.01 in Snow Light Snow
2:15 PM 30.9 °F 24.3 °F 27.0 °F 85% 29.95 in 4.0 mi Variable 6.9 mph - 0.01 in Snow Light Snow
2:27 PM 30.9 °F 23.5 °F 26.1 °F 82% 29.94 in 5.0 mi SW 8.1 mph - 0.01 in Snow Light Snow
2:57 PM 32.0 °F 26.4 °F 26.1 °F 79% 29.87 in 10.0 mi WSW 5.8 mph - 0.01 in   Overcast
3:33 PM 32.0 °F 23.6 °F 27.0 °F 82% 29.95 in 10.0 mi SW 10.4 mph - N/A   Overcast
3:57 PM 32.0 °F 24.8 °F 28.0 °F 85% 29.88 in 1.0 mi WSW 8.1 mph - 0.00 in Snow Light Snow
4:01 PM 30.9 °F 26.2 °F 28.0 °F 89% 29.96 in 1.0 mi Variable 4.6 mph - 0.00 in Snow Light Snow
4:19 PM 32.0 °F 27.5 °F 28.0 °F 85% 29.96 in 4.0 mi Variable 4.6 mph - 0.02 in Snow Light Snow
4:48 PM 32.0 °F 24.8 °F 27.0 °F 82% 29.97 in 1.2 mi WNW 8.1 mph - 0.02 in Snow Light Snow
4:52 PM 30.2 °F 20.8 °F 26.6 °F 86% 29.97 in 0.2 mi West 11.5 mph 17.3 mph 0.02 in Fog , Snow Snow
4:57 PM 30.0 °F 22.4 °F 27.0 °F 88% 29.91 in 0.2 mi WSW 8.1 mph - 0.04 in Fog , Snow Snow
5:03 PM 30.0 °F 22.4 °F 27.0 °F 88% 29.96 in 7.0 mi WSW 8.1 mph - 0.00 in Snow Light Snow
5:18 PM 30.0 °F 24.1 °F 26.1 °F 85% 29.97 in 7.0 mi West 5.8 mph - 0.00 in Snow Light Snow
5:44 PM 30.9 °F 26.2 °F 27.0 °F 85% 29.97 in 10.0 mi WSW 4.6 mph - 0.00 in   Overcast
5:57 PM 30.9 °F 25.2 °F 27.0 °F 85% 29.94 in 10.0 mi Variable 5.8 mph - 0.00 in   Mostly Cloudy
6:57 PM 30.9 °F 24.3 °F 27.0 °F 85% 29.94 in 10.0 mi WSW 6.9 mph - N/A   Mostly Cloudy
7:04 PM 30.9 °F 25.2 °F 26.1 °F 82% 29.98 in 10.0 mi WSW 5.8 mph - N/A   Mostly Cloudy
7:57 PM 30.9 °F 24.3 °F 25.0 °F 79% 29.95 in 10.0 mi Variable 6.9 mph - N/A   Overcast
8:57 PM 30.9 °F 21.7 °F 25.0 °F 79% 29.97 in 10.0 mi WSW 11.5 mph - N/A   Overcast
9:21 PM 30.9 °F 21.7 °F 26.1 °F 82% 30.01 in 10.0 mi WSW 11.5 mph - N/A   Overcast
9:57 PM 30.9 °F 25.2 °F 26.1 °F 82% 29.98 in 10.0 mi West 5.8 mph - N/A   Overcast
10:57 PM 30.9 °F 27.5 °F 25.0 °F 79% 29.97 in 10.0 mi Variable 3.5 mph - 0.00 in   Overcast
11:57 PM 30.9 °F 26.2 °F 24.1 °F 76% 29.96 in 10.0 mi Variable 4.6 mph - N/A   Overcast